• Join FlightAware (Why Join?)
  • Login
  • US Flag GB Flag 
10:22 EST


 

Airport Tracker/Info


-or-


 

Live Flight TrackerFlight Track Log ✈ PDT4314 ✈ 31-Oct-2013 ✈ KBGM - KPHL

Flight Track Log - Related Links

Times and Time Zones

All times are in EDT time to prevent confusion due to time zone crossing. See the PDT4314 flight status page for this flight to view local times or setup timezone preferences in your user account.

Time Position Orientation Groundspeed Altitude Reporting Facility
EDT Latitude Longitude Course Direction KTS MPH feet Rate Location/Type
17:58 42.0499 -75.9277 180° South  Level Estimated
17:59 41.9955 -75.9288 181° South  Level FlightAware Approximate
18:00 41.9412 -75.9298 181° South  Level FlightAware Approximate
18:01 41.8868 -75.9308 181° South  Level FlightAware Approximate
18:02 41.8342 -75.9122 154° Southeast  Level Estimated
18:03 41.7816 -75.8937 160° South  Level Estimated
18:04 41.7290 -75.8752 159° South  Level Estimated
18:05 41.6763 -75.8578 166° South  Level FlightAware Approximate
18:06 41.6234 -75.8404 166° South  Level FlightAware Approximate
18:07 41.5709 -75.8220 153° Southeast  Level Estimated
18:08 41.5183 -75.8035 161° South  Level Estimated
18:09 41.4671 -75.7790 160° South  Level FlightAware Approximate
18:10 41.4159 -75.7545 160° South  Level FlightAware Approximate
18:11 41.3632 -75.7365 162° South  Level Estimated
18:12 41.3120 -75.7124 161° South  Level FlightAware Approximate
18:13 41.2607 -75.6884 161° South  Level FlightAware Approximate
18:14 41.2094 -75.6644 161° South  Level FlightAware Approximate
18:15 41.1581 -75.6404 161° South  Level FlightAware Approximate
18:16 41.1052 -75.6236 159° South  Level Estimated
18:17 41.0523 -75.6069 163° South  Level Estimated
18:18 41.0011 -75.5828 160° South  Level FlightAware Approximate
18:19 40.9498 -75.5588 161° South  Level FlightAware Approximate
18:20 40.8985 -75.5348 161° South  Level FlightAware Approximate
18:21 40.8473 -75.5108 161° South  Level FlightAware Approximate
18:22 40.7941 -75.4959 190° South  Level Estimated
18:23 40.7397 -75.4967 181° South  Level FlightAware Approximate
18:24 40.6853 -75.4974 181° South  Level FlightAware Approximate
18:25 40.6310 -75.4982 181° South  Level FlightAware Approximate
18:26 40.5784 -75.4801 187° South  Level Estimated
18:27 40.5246 -75.4912 189° South  Level FlightAware Approximate
18:27 40.5667 -75.5667 179° South 187 215 6,000  Level Philadelphia TRACON
18:28 40.4725 -75.4710 190° South  Level Estimated
18:28 40.5333 -75.5667 180° South 186 214 6,000  Level Philadelphia TRACON
18:29 40.4200 -75.4897 195° South  Level FlightAware Approximate
18:29 40.4833 -75.5667 180° South 201 231 5,400  Level Philadelphia TRACON
18:30 40.3675 -75.5083 195° South  Level FlightAware Approximate
18:30 40.4333 -75.5500 166° South 218 251 5,000  Level Philadelphia TRACON
18:31 40.3173 -75.4810 180° South  Level Estimated
18:31 40.3833 -75.5167 153° Southeast 200 230 5,000  Level Philadelphia TRACON
18:32 40.2671 -75.4537 143° Southeast  Level Estimated
18:32 40.3333 -75.4833 153° Southeast 198 228 4,500  Level Philadelphia TRACON
18:33 40.2180 -75.4526 179° South  Level FlightAware Approximate
18:33 40.2833 -75.4333 143° Southeast 201 231 4,000  Level Philadelphia TRACON
18:34 40.2333 -75.4000 153° Southeast 187 215 4,000 -60 Level Philadelphia TRACON
18:35 40.1833 -75.3833 166° South 171 197 3,900 -300 Descending Philadelphia TRACON
18:36 40.1333 -75.3667 166° South 184 212 3,400 -540 Descending Philadelphia TRACON
18:37 40.1000 -75.3333 143° Southeast 196 226 3,000 -240 Descending Philadelphia TRACON
18:38 40.0500 -75.3167 166° South 170 196 3,000 -240 Level Philadelphia TRACON
18:39 40.0167 -75.3000 159° South 132 152 2,600 -600 Descending Philadelphia TRACON
18:40 39.9833 -75.2833 159° South 133 153 1,800 -720 Descending Philadelphia TRACON
18:41 39.9500 -75.2667 159° South 98 113 1,200 -540 Descending Philadelphia TRACON
18:42 39.9167 -75.2500 159° South 94 108 700 -540 Descending Philadelphia TRACON
18:43 39.9000 -75.2333 143° Southeast 101 116 200 -600 Descending Philadelphia TRACON